West Point, VA

5:51 PM EDT on September 22, 2017 (GMT -0400)
West Point

Weather History for KFYJ - April, 2013

Change the Weather History Date:

Monday, April 1, 2013

  Actual Average (KJGG) Record (KJGG)
Temperature  
Mean Temperature 54 °F -  
Max Temperature 70 °F 69 °F 87 °F (2016)
Min Temperature 39 °F 40 °F 25 °F (1987)
Degree Days  
Heating Degree Days 10    
Growing Degree Days 4 (Base 50)    
Moisture  
Dew Point 44 °F    
Average Humidity 69    
Maximum Humidity 100    
Minimum Humidity 34    
Precipitation  
Precipitation 0.00 in - - ()
Sea Level Pressure  
Sea Level Pressure 29.83 in    
Wind  
Wind Speed 4 mph (WNW)    
Max Wind Speed 17 mph    
Max Gust Speed 25 mph    
Visibility 8 miles    
Events      
Averages and records for this station are not official NWS values.
T = Trace of Precipitation, MM = Missing Value Source: NWS Daily Summary

Daily Weather History Graph

Daily Weather History Graph

Search for Another Location

Airport or City:

Trip Planner

Search our weather history database for the weather conditions in past years. The results will help you decide how hot, cold, wet, or windy it might be!

Date:

Astronomy

Apr. 01, 2013 Rise Set
Actual Time 6:52 AM EDT 7:30 PM EDT
Civil Twilight 6:25 AM EDT 7:56 PM EDT
Nautical Twilight 5:54 AM EDT 8:27 PM EDT
Astronomical Twilight 5:22 AM EDT 8:59 PM EDT
Moon 12:30 AM EDT (4/1) 10:41 AM EDT (4/1)
Length of Visible Light 13h 30m
Length of Day
12h 37m
Waning Gibbous, 67% of the Moon is Illuminated
Apr 1
Waning Gibbous
Apr 3
Last Quarter
Apr 10
New
Apr 18
First Quarter
Apr 25
Full

Hourly Weather History & Observations

Time (EDT) Temp. Windchill Dew Point Humidity Pressure Visibility Wind Dir Wind Speed Gust Speed Precip Events Conditions
12:15 AM 46.2 °F - 46.2 °F 100% 29.80 in 0.5 mi Calm Calm - N/A   Overcast
12:35 AM 48.4 °F - 48.4 °F 100% 29.80 in 0.5 mi Calm Calm - N/A   Overcast
12:55 AM 49.3 °F - 49.3 °F 100% 29.81 in 0.2 mi Calm Calm - N/A   Overcast
1:15 AM 48.6 °F - 48.6 °F 100% 29.81 in 2.5 mi Calm Calm - N/A   Scattered Clouds
1:35 AM 49.5 °F - 49.5 °F 100% 29.81 in 5.0 mi Calm Calm - N/A   Mostly Cloudy
1:55 AM 51.6 °F - 51.6 °F 100% 29.80 in 10.0 mi SW 3.5 mph - N/A   Scattered Clouds
2:15 AM 52.7 °F - 52.7 °F 100% 29.80 in 10.0 mi WSW 4.6 mph - N/A   Scattered Clouds
2:35 AM 53.6 °F - 53.6 °F 100% 29.80 in 10.0 mi Calm Calm - N/A   Scattered Clouds
2:55 AM 49.8 °F - 49.8 °F 100% 29.81 in 7.0 mi Calm Calm - N/A   Scattered Clouds
3:15 AM 50.5 °F - 50.5 °F 100% 29.81 in 10.0 mi Calm Calm - N/A   Mostly Cloudy
3:35 AM 52.7 °F - 52.7 °F 100% 29.81 in 10.0 mi WSW 3.5 mph - N/A   Mostly Cloudy
3:55 AM 51.4 °F - 51.4 °F 100% 29.80 in 10.0 mi Calm Calm - N/A   Scattered Clouds
4:15 AM 51.3 °F - 51.3 °F 100% 29.80 in 7.0 mi Calm Calm - N/A   Scattered Clouds
4:35 AM 50.0 °F - 50.0 °F 100% 29.80 in 2.0 mi Calm Calm - N/A   Mostly Cloudy
4:55 AM 45.3 °F - 45.3 °F 100% 29.80 in 0.2 mi Calm Calm - N/A   Mostly Cloudy
5:15 AM 44.8 °F - 44.8 °F 100% 29.81 in 0.2 mi Calm Calm - N/A   Unknown
5:35 AM 46.2 °F - 46.2 °F 100% 29.81 in 0.2 mi Calm Calm - N/A   Mostly Cloudy
5:55 AM 46.4 °F - 46.4 °F 100% 29.81 in 0.2 mi Calm Calm - N/A   Overcast
6:15 AM 45.1 °F - 45.1 °F 100% 29.81 in 0.2 mi Calm Calm - N/A   Mostly Cloudy
6:35 AM 41.0 °F - 41.0 °F 100% 29.82 in 0.2 mi Calm Calm - N/A   Mostly Cloudy
6:55 AM 41.0 °F - 41.0 °F 100% 29.83 in 0.2 mi Calm Calm - N/A   Mostly Cloudy
7:15 AM 44.1 °F - 44.1 °F 100% 29.83 in 0.2 mi Calm Calm - N/A   Unknown
7:35 AM 39.7 °F - 39.7 °F 100% 29.84 in 0.2 mi Calm Calm - N/A   Unknown
7:55 AM 41.4 °F - 41.4 °F 100% 29.84 in 0.2 mi Calm Calm - N/A   Unknown
8:15 AM 48.7 °F - 48.7 °F 100% 29.84 in 3.0 mi Calm Calm - N/A   Clear
8:35 AM 52.0 °F - 52.0 °F 100% 29.84 in 10.0 mi WSW 4.6 mph - N/A   Clear
8:55 AM 52.3 °F - 52.3 °F 100% 29.84 in 10.0 mi WSW 4.6 mph - N/A   Clear
9:15 AM 53.4 °F - 53.4 °F 100% 29.84 in 10.0 mi SW 3.5 mph - N/A   Clear
9:35 AM 54.5 °F - 54.5 °F 100% 29.84 in 10.0 mi West 8.1 mph - N/A   Clear
9:55 AM 57.7 °F - 51.4 °F 79% 29.84 in 10.0 mi West 5.8 mph - N/A   Clear
10:15 AM 59.7 °F - 48.9 °F 67% 29.83 in 10.0 mi WSW 5.8 mph - N/A   Clear
10:35 AM 61.5 °F - 47.3 °F 60% 29.83 in 10.0 mi West 5.8 mph - N/A   Clear
11:15 AM 63.7 °F - 45.3 °F 51% 29.82 in 10.0 mi West 4.6 mph - N/A   Clear
11:35 AM 64.4 °F - 44.8 °F 49% 29.81 in 10.0 mi WSW 3.5 mph - N/A   Clear
11:55 AM 65.3 °F - 43.5 °F 45% 29.81 in 10.0 mi West 5.8 mph - N/A   Clear
12:15 PM 67.3 °F - 42.3 °F 40% 29.81 in 10.0 mi WNW 6.9 mph - N/A   Clear
12:35 PM 67.6 °F - 40.6 °F 37% 29.80 in 10.0 mi WNW 12.7 mph 17.3 mph N/A   Clear
12:55 PM 68.4 °F - 41.2 °F 37% 29.79 in 10.0 mi WNW 10.4 mph 18.4 mph N/A   Clear
1:15 PM 68.9 °F - 40.3 °F 35% 29.79 in 10.0 mi West 12.7 mph - N/A   Clear
1:35 PM 69.8 °F - 40.3 °F 34% 29.78 in 10.0 mi WSW 11.5 mph - N/A   Clear
1:55 PM 70.0 °F - 41.7 °F 36% 29.77 in 10.0 mi WSW 13.8 mph - N/A   Scattered Clouds
2:15 PM 69.4 °F - 41.9 °F 37% 29.76 in 7.0 mi West 17.3 mph - N/A   Scattered Clouds
2:35 PM 69.3 °F - 41.9 °F 37% 29.75 in 10.0 mi West 9.2 mph 13.8 mph N/A   Scattered Clouds
2:55 PM 69.1 °F - 41.7 °F 37% 29.75 in 10.0 mi West 16.1 mph 21.9 mph N/A   Mostly Cloudy
3:15 PM 70.9 °F - 42.6 °F 36% 29.75 in 10.0 mi West 13.8 mph 21.9 mph N/A   Mostly Cloudy
3:35 PM 69.4 °F - 42.1 °F 37% 29.74 in 10.0 mi West 10.4 mph 21.9 mph N/A   Scattered Clouds
3:55 PM 69.3 °F - 41.4 °F 36% 29.74 in 10.0 mi West 13.8 mph 19.6 mph N/A   Scattered Clouds
4:15 PM 69.1 °F - 41.2 °F 36% 29.74 in 10.0 mi West 11.5 mph 19.6 mph N/A   Scattered Clouds
4:35 PM 68.2 °F - 41.0 °F 37% 29.75 in 10.0 mi West 13.8 mph 21.9 mph N/A   Mostly Cloudy
4:55 PM 68.0 °F - 42.3 °F 39% 29.75 in 10.0 mi West 16.1 mph 21.9 mph N/A   Mostly Cloudy
5:15 PM 68.9 °F - 41.9 °F 37% 29.76 in 10.0 mi West 13.8 mph 25.3 mph N/A   Scattered Clouds
5:35 PM 66.7 °F - 42.1 °F 41% 29.77 in 10.0 mi West 13.8 mph 23.0 mph N/A   Scattered Clouds
5:55 PM 66.0 °F - 41.7 °F 41% 29.78 in 10.0 mi West 15.0 mph 25.3 mph N/A   Mostly Cloudy
6:15 PM 65.1 °F - 43.0 °F 45% 29.79 in 10.0 mi West 10.4 mph - N/A   Mostly Cloudy
6:35 PM 65.1 °F - 41.2 °F 42% 29.80 in 10.0 mi WNW 16.1 mph 23.0 mph N/A   Mostly Cloudy
6:55 PM 63.7 °F - 40.8 °F 43% 29.81 in 10.0 mi West 11.5 mph 25.3 mph N/A   Scattered Clouds
7:15 PM 62.8 °F - 41.9 °F 46% 29.82 in 10.0 mi West 10.4 mph - N/A   Mostly Cloudy
7:35 PM 58.6 °F - 41.7 °F 53% 29.85 in 10.0 mi North 8.1 mph - N/A   Overcast
7:55 PM 56.5 °F - 40.3 °F 55% 29.86 in 10.0 mi NNW 9.2 mph 18.4 mph N/A   Mostly Cloudy
8:15 PM 55.4 °F - 40.3 °F 57% 29.88 in 10.0 mi North 5.8 mph - N/A   Scattered Clouds
8:35 PM 54.7 °F - 41.0 °F 60% 29.89 in 10.0 mi North 5.8 mph - N/A   Mostly Cloudy
8:55 PM 53.2 °F - 40.3 °F 61% 29.90 in 10.0 mi NNW 4.6 mph - N/A   Scattered Clouds
9:15 PM 52.3 °F - 39.9 °F 63% 29.91 in 10.0 mi North 3.5 mph - N/A   Clear
9:35 PM 51.8 °F - 38.3 °F 60% 29.93 in 10.0 mi North 4.6 mph - N/A   Clear
9:55 PM 51.3 °F - 37.4 °F 59% 29.93 in 10.0 mi Calm Calm - N/A   Clear
10:15 PM 50.2 °F - 35.8 °F 58% 29.95 in 10.0 mi North 5.8 mph - N/A   Clear
10:35 PM 49.5 °F - 34.5 °F 56% 29.96 in 10.0 mi North 6.9 mph - N/A   Clear
10:55 PM 48.4 °F - 33.3 °F 56% 29.97 in 10.0 mi North 4.6 mph - N/A   Clear
11:15 PM 47.3 °F - 32.9 °F 57% 29.99 in 10.0 mi North 3.5 mph - N/A   Scattered Clouds
11:35 PM 46.4 °F 44.3 °F 32.9 °F 59% 29.99 in 10.0 mi North 4.6 mph - N/A   Clear
11:55 PM 46.0 °F - 32.2 °F 58% 29.99 in 10.0 mi Calm Calm - N/A   Clear